Time,TemperatureF,DewpointF,PressureIn,WindDirection,WindDirectionDegrees,WindSpeedMPH,WindSpeedGustMPH,Humidity,HourlyPrecipIn,Conditions,Clouds,dailyrainin,SoftwareType,DateUTC
2013-03-15 00:02:00,27.0,24.0,30.08,SW,215,0.0,2.0,88,0.00,,,0.00,,2013-03-15 05:02:00,
2013-03-15 00:12:00,27.0,24.0,30.08,SW,215,0.0,2.0,88,0.00,,,0.00,,2013-03-15 05:12:00,
2013-03-15 00:22:00,28.0,25.0,30.06,SW,215,0.0,2.0,89,0.00,,,0.00,,2013-03-15 05:22:00,
2013-03-15 00:32:00,27.0,24.0,30.06,SW,215,0.0,0.0,88,0.00,,,0.00,,2013-03-15 05:32:00,
2013-03-15 00:42:00,27.0,24.0,30.06,SW,215,0.0,0.0,88,0.00,,,0.00,,2013-03-15 05:42:00,
2013-03-15 00:52:00,27.0,24.0,30.05,SW,215,0.0,0.0,88,0.00,,,0.00,,2013-03-15 05:52:00,
2013-03-15 01:02:00,27.0,24.0,30.05,SW,215,1.0,1.0,89,0.00,,,0.00,,2013-03-15 06:02:00,
2013-03-15 01:12:00,27.0,24.0,30.05,SW,215,1.0,1.0,89,0.00,,,0.00,,2013-03-15 06:12:00,
2013-03-15 01:22:00,27.0,24.0,30.06,SW,215,0.0,1.0,89,0.00,,,0.00,,2013-03-15 06:22:00,
2013-03-15 01:32:00,27.0,24.0,30.06,SW,215,0.0,0.0,89,0.00,,,0.00,,2013-03-15 06:32:00,
2013-03-15 01:42:00,27.0,24.0,30.06,SW,215,0.0,0.0,89,0.00,,,0.00,,2013-03-15 06:42:00,
2013-03-15 01:53:00,27.0,24.0,30.05,SW,215,0.0,0.0,89,0.00,,,0.00,,2013-03-15 06:53:00,
2013-03-15 02:02:00,27.0,24.0,30.05,SW,215,0.0,0.0,89,0.00,,,0.00,,2013-03-15 07:02:00,
2013-03-15 02:12:00,27.0,24.0,30.05,SW,215,0.0,0.0,89,0.00,,,0.00,,2013-03-15 07:12:00,
2013-03-15 02:22:00,27.0,24.0,30.04,SW,215,0.0,0.0,89,0.00,,,0.00,,2013-03-15 07:22:00,
2013-03-15 02:32:00,27.0,24.0,30.03,SW,215,0.0,0.0,89,0.00,,,0.00,,2013-03-15 07:32:00,
2013-03-15 02:42:00,27.0,24.0,30.03,SW,215,0.0,0.0,89,0.00,,,0.00,,2013-03-15 07:42:00,
2013-03-15 02:52:00,27.0,24.0,30.03,SW,215,0.0,0.0,89,0.00,,,0.00,,2013-03-15 07:52:00,
2013-03-15 03:02:00,28.0,25.0,30.02,SW,215,0.0,1.0,89,0.00,,,0.00,,2013-03-15 08:02:00,
2013-03-15 03:12:00,28.0,25.0,30.02,SW,215,0.0,1.0,89,0.00,,,0.00,,2013-03-15 08:12:00,
2013-03-15 03:22:00,27.0,24.0,30.01,SW,215,0.0,2.0,89,0.00,,,0.00,,2013-03-15 08:22:00,
2013-03-15 03:32:00,27.0,24.0,30.01,SW,215,0.0,0.0,89,0.00,,,0.00,,2013-03-15 08:32:00,
2013-03-15 03:42:00,27.0,24.0,30.01,SW,215,0.0,0.0,89,0.00,,,0.00,,2013-03-15 08:42:00,
2013-03-15 03:52:00,27.0,24.0,30.01,SW,215,0.0,0.0,89,0.00,,,0.00,,2013-03-15 08:52:00,
2013-03-15 04:02:00,26.0,23.0,30.00,SW,215,0.0,0.0,89,0.00,,,0.00,,2013-03-15 09:02:00,
2013-03-15 04:12:00,26.0,23.0,30.00,SW,215,0.0,0.0,89,0.00,,,0.00,,2013-03-15 09:12:00,
2013-03-15 04:22:00,27.0,24.0,30.00,SW,215,0.0,0.0,90,0.00,,,0.00,,2013-03-15 09:22:00,
2013-03-15 04:33:00,27.0,24.0,29.98,SW,215,0.0,0.0,90,0.00,,,0.00,,2013-03-15 09:33:00,
2013-03-15 04:43:00,27.0,24.0,29.98,SW,215,0.0,0.0,90,0.00,,,0.00,,2013-03-15 09:43:00,
2013-03-15 04:53:00,27.0,24.0,29.98,SW,215,0.0,0.0,89,0.00,,,0.00,,2013-03-15 09:53:00,
2013-03-15 05:03:00,27.0,24.0,29.98,SW,215,0.0,1.0,90,0.00,,,0.00,,2013-03-15 10:03:00,
2013-03-15 05:12:00,27.0,24.0,29.98,SW,215,0.0,1.0,90,0.00,,,0.00,,2013-03-15 10:12:00,
2013-03-15 05:23:00,27.0,24.0,29.98,SW,215,0.0,0.0,90,0.00,,,0.00,,2013-03-15 10:23:00,
2013-03-15 05:33:00,27.0,24.0,29.98,SW,215,0.0,0.0,90,0.00,,,0.00,,2013-03-15 10:33:00,
2013-03-15 05:42:00,27.0,24.0,29.98,SW,215,0.0,0.0,90,0.00,,,0.00,,2013-03-15 10:42:00,
2013-03-15 05:52:00,27.0,24.0,29.98,SW,215,0.0,0.0,89,0.00,,,0.00,,2013-03-15 10:52:00,
2013-03-15 06:02:00,27.0,24.0,29.97,SW,215,0.0,0.0,90,0.00,,,0.00,,2013-03-15 11:02:00,
2013-03-15 06:12:00,27.0,24.0,29.97,SW,215,0.0,0.0,90,0.00,,,0.00,,2013-03-15 11:12:00,
2013-03-15 06:22:00,28.0,25.0,29.97,SW,215,0.0,0.0,90,0.00,,,0.00,,2013-03-15 11:22:00,
2013-03-15 06:32:00,27.0,24.0,29.97,SW,215,0.0,1.0,89,0.00,,,0.00,,2013-03-15 11:32:00,
2013-03-15 06:42:00,27.0,24.0,29.97,SW,215,0.0,1.0,89,0.00,,,0.00,,2013-03-15 11:42:00,
2013-03-15 06:52:00,27.0,24.0,29.97,SW,215,0.0,0.0,90,0.00,,,0.00,,2013-03-15 11:52:00,
2013-03-15 07:02:00,27.0,24.0,29.98,SW,215,1.0,2.0,90,0.00,,,0.00,,2013-03-15 12:02:00,
2013-03-15 07:12:00,27.0,24.0,29.98,SW,215,1.0,2.0,90,0.00,,,0.00,,2013-03-15 12:12:00,
2013-03-15 07:23:00,27.0,24.0,29.98,SW,215,0.0,2.0,90,0.00,,,0.00,,2013-03-15 12:23:00,
2013-03-15 07:32:00,27.0,24.0,29.98,SW,215,2.0,3.0,90,0.00,,,0.00,,2013-03-15 12:32:00,
2013-03-15 07:42:00,27.0,24.0,29.98,SW,215,2.0,3.0,90,0.00,,,0.00,,2013-03-15 12:42:00,
2013-03-15 07:52:00,27.0,25.0,29.97,SW,215,1.0,3.0,91,0.00,,,0.00,,2013-03-15 12:52:00,
2013-03-15 08:02:00,27.0,25.0,29.97,SW,215,0.0,2.0,91,0.00,,,0.00,,2013-03-15 13:02:00,
2013-03-15 08:12:00,27.0,25.0,29.97,SW,215,0.0,2.0,91,0.00,,,0.00,,2013-03-15 13:12:00,
2013-03-15 08:22:00,28.0,26.0,29.97,SW,215,0.0,1.0,91,0.00,,,0.00,,2013-03-15 13:22:00,
2013-03-15 08:32:00,28.0,26.0,29.96,SW,215,1.0,2.0,91,0.00,,,0.00,,2013-03-15 13:32:00,
2013-03-15 08:42:00,28.0,26.0,29.96,SW,215,1.0,2.0,91,0.00,,,0.00,,2013-03-15 13:42:00,
2013-03-15 08:52:00,28.0,26.0,29.97,SW,215,1.0,3.0,91,0.00,,,0.00,,2013-03-15 13:52:00,
2013-03-15 09:02:00,29.0,27.0,29.96,SW,215,1.0,3.0,91,0.00,,,0.00,,2013-03-15 14:02:00,
2013-03-15 09:12:00,29.0,27.0,29.96,SW,215,1.0,3.0,91,0.00,,,0.00,,2013-03-15 14:12:00,
2013-03-15 09:22:00,29.0,26.0,29.96,SW,215,0.0,3.0,90,0.00,,,0.00,,2013-03-15 14:22:00,
2013-03-15 09:32:00,30.0,27.0,29.96,SW,215,1.0,2.0,90,0.00,,,0.00,,2013-03-15 14:32:00,
2013-03-15 09:42:00,30.0,27.0,29.96,SW,215,1.0,2.0,90,0.00,,,0.00,,2013-03-15 14:42:00,
2013-03-15 09:53:00,31.0,28.0,29.95,SW,215,0.0,3.0,90,0.00,,,0.00,,2013-03-15 14:53:00,
2013-03-15 10:02:00,32.0,29.0,29.95,North,5,3.0,7.0,87,0.00,,,0.00,,2013-03-15 15:02:00,
2013-03-15 10:13:00,32.0,29.0,29.95,North,5,3.0,7.0,87,0.00,,,0.00,,2013-03-15 15:13:00,
2013-03-15 10:22:00,32.0,28.0,29.94,North,11,4.0,6.0,85,0.00,,,0.00,,2013-03-15 15:22:00,
2013-03-15 10:33:00,33.0,29.0,29.94,NNW,329,3.0,7.0,84,0.00,,,0.00,,2013-03-15 15:33:00,
2013-03-15 10:42:00,33.0,29.0,29.94,NNW,329,3.0,7.0,84,0.00,,,0.00,,2013-03-15 15:42:00,
2013-03-15 10:52:00,33.0,29.0,29.95,NNW,340,2.0,5.0,84,0.00,,,0.00,,2013-03-15 15:52:00,
2013-03-15 11:02:00,33.0,29.0,29.94,North,5,4.0,7.0,85,0.00,,,0.00,,2013-03-15 16:02:00,
2013-03-15 11:12:00,33.0,29.0,29.94,NE,41,3.0,6.0,85,0.00,,,0.00,,2013-03-15 16:12:00,
2013-03-15 11:22:00,33.0,29.0,29.94,NE,41,3.0,6.0,85,0.00,,,0.00,,2013-03-15 16:22:00,
2013-03-15 11:32:00,34.0,30.0,29.93,ENE,57,1.0,5.0,86,0.00,,,0.00,,2013-03-15 16:32:00,
2013-03-15 11:42:00,34.0,30.0,29.93,ENE,57,1.0,5.0,86,0.00,,,0.00,,2013-03-15 16:42:00,
2013-03-15 11:52:00,33.0,29.0,29.93,NNW,348,2.0,7.0,86,0.00,,,0.00,,2013-03-15 16:52:00,
2013-03-15 12:02:00,34.0,31.0,29.94,North,5,2.0,7.0,87,0.01,,,0.01,,2013-03-15 17:02:00,
2013-03-15 12:12:00,34.0,31.0,29.94,North,5,2.0,7.0,87,0.01,,,0.01,,2013-03-15 17:12:00,
2013-03-15 12:22:00,34.0,31.0,29.95,ENE,75,3.0,6.0,87,0.01,,,0.01,,2013-03-15 17:22:00,
2013-03-15 12:32:00,33.0,30.0,29.94,ENE,67,0.0,6.0,88,0.01,,,0.01,,2013-03-15 17:32:00,
2013-03-15 12:42:00,33.0,30.0,29.94,ENE,67,0.0,6.0,88,0.01,,,0.01,,2013-03-15 17:42:00,
2013-03-15 12:53:00,33.0,30.0,29.94,NE,40,5.0,6.0,89,0.01,,,0.01,,2013-03-15 17:53:00,
2013-03-15 13:02:00,34.0,31.0,29.95,ENE,62,3.0,5.0,89,0.00,,,0.01,,2013-03-15 18:02:00,
2013-03-15 13:12:00,34.0,31.0,29.95,ENE,62,3.0,5.0,89,0.00,,,0.01,,2013-03-15 18:12:00,
2013-03-15 13:22:00,34.0,31.0,29.95,NE,54,0.0,6.0,88,0.00,,,0.01,,2013-03-15 18:22:00,
2013-03-15 13:32:00,34.0,31.0,29.95,NE,46,4.0,5.0,89,0.01,,,0.02,,2013-03-15 18:32:00,
2013-03-15 13:42:00,34.0,31.0,29.95,NE,46,4.0,5.0,89,0.01,,,0.02,,2013-03-15 18:42:00,
2013-03-15 13:52:00,34.0,31.0,29.94,NNE,23,2.0,6.0,88,0.01,,,0.02,,2013-03-15 18:52:00,
2013-03-15 14:02:00,34.0,31.0,29.94,ENE,64,1.0,4.0,89,0.01,,,0.02,,2013-03-15 19:02:00,
2013-03-15 14:12:00,34.0,31.0,29.94,ENE,64,1.0,4.0,89,0.01,,,0.02,,2013-03-15 19:12:00,
2013-03-15 14:22:00,34.0,31.0,29.93,ENE,73,1.0,3.0,89,0.01,,,0.02,,2013-03-15 19:22:00,
2013-03-15 14:32:00,34.0,31.0,29.93,East,90,0.0,3.0,89,0.00,,,0.02,,2013-03-15 19:32:00,
2013-03-15 14:42:00,34.0,31.0,29.93,East,90,0.0,3.0,89,0.00,,,0.02,,2013-03-15 19:42:00,
2013-03-15 14:52:00,34.0,31.0,29.92,ESE,113,2.0,3.0,89,0.00,,,0.02,,2013-03-15 19:52:00,
2013-03-15 15:02:00,34.0,31.0,29.92,NE,36,1.0,5.0,89,0.00,,,0.02,,2013-03-15 20:02:00,
2013-03-15 15:12:00,34.0,31.0,29.92,NE,36,1.0,5.0,89,0.00,,,0.02,,2013-03-15 20:12:00,
2013-03-15 15:22:00,35.0,32.0,29.91,East,94,0.0,3.0,89,0.00,,,0.02,,2013-03-15 20:22:00,
2013-03-15 15:32:00,34.0,31.0,29.91,NNE,32,1.0,7.0,89,0.00,,,0.02,,2013-03-15 20:32:00,
2013-03-15 15:42:00,34.0,31.0,29.91,NNE,32,1.0,7.0,89,0.00,,,0.02,,2013-03-15 20:42:00,
2013-03-15 15:52:00,34.0,31.0,29.90,NE,37,1.0,5.0,90,0.00,,,0.02,,2013-03-15 20:52:00,
2013-03-15 16:02:00,34.0,31.0,29.89,East,82,3.0,4.0,89,0.00,,,0.02,,2013-03-15 21:02:00,
2013-03-15 16:12:00,34.0,31.0,29.89,East,82,3.0,4.0,89,0.00,,,0.02,,2013-03-15 21:12:00,
2013-03-15 16:22:00,34.0,31.0,29.88,NE,49,3.0,6.0,89,0.00,,,0.02,,2013-03-15 21:22:00,
2013-03-15 16:33:00,34.0,31.0,29.88,East,89,1.0,5.0,89,0.00,,,0.02,,2013-03-15 21:33:00,
2013-03-15 16:43:00,34.0,31.0,29.88,East,89,1.0,5.0,89,0.00,,,0.02,,2013-03-15 21:43:00,
2013-03-15 16:53:00,34.0,31.0,29.86,East,101,0.0,5.0,89,0.00,,,0.02,,2013-03-15 21:53:00,
2013-03-15 17:03:00,34.0,31.0,29.87,ENE,66,1.0,6.0,89,0.00,,,0.02,,2013-03-15 22:03:00,
2013-03-15 17:13:00,34.0,31.0,29.87,ENE,66,1.0,6.0,89,0.00,,,0.02,,2013-03-15 22:13:00,
2013-03-15 17:22:00,34.0,31.0,29.88,NE,49,0.0,4.0,90,0.00,,,0.02,,2013-03-15 22:22:00,
2013-03-15 17:32:00,34.0,31.0,29.88,NE,53,2.0,5.0,90,0.00,,,0.02,,2013-03-15 22:32:00,
2013-03-15 17:42:00,34.0,31.0,29.88,NE,53,2.0,5.0,90,0.00,,,0.02,,2013-03-15 22:42:00,
2013-03-15 17:52:00,34.0,31.0,29.87,NE,51,1.0,7.0,90,0.00,,,0.02,,2013-03-15 22:52:00,
2013-03-15 18:02:00,34.0,31.0,29.87,East,88,2.0,6.0,90,0.00,,,0.02,,2013-03-15 23:02:00,
2013-03-15 18:12:00,34.0,31.0,29.87,East,88,2.0,6.0,90,0.00,,,0.02,,2013-03-15 23:12:00,
2013-03-15 18:22:00,33.0,30.0,29.87,ESE,107,2.0,7.0,89,0.00,,,0.02,,2013-03-15 23:22:00,
2013-03-15 18:32:00,32.0,29.0,29.88,SE,131,5.0,8.0,89,0.00,,,0.02,,2013-03-15 23:32:00,
2013-03-15 18:42:00,32.0,29.0,29.88,SE,131,5.0,8.0,89,0.00,,,0.02,,2013-03-15 23:42:00,
2013-03-15 18:53:00,32.0,29.0,29.88,ESE,111,2.0,6.0,89,0.00,,,0.02,,2013-03-15 23:53:00,
2013-03-15 19:02:00,32.0,29.0,29.88,ESE,116,2.0,10.0,89,0.00,,,0.02,,2013-03-16 00:02:00,
2013-03-15 19:12:00,32.0,29.0,29.88,ESE,116,2.0,10.0,89,0.00,,,0.02,,2013-03-16 00:12:00,
2013-03-15 19:22:00,32.0,29.0,29.89,ESE,116,1.0,8.0,89,0.00,,,0.02,,2013-03-16 00:22:00,
2013-03-15 19:32:00,32.0,29.0,29.89,ENE,74,2.0,8.0,88,0.00,,,0.02,,2013-03-16 00:32:00,
2013-03-15 19:42:00,32.0,29.0,29.89,ENE,74,2.0,8.0,88,0.00,,,0.02,,2013-03-16 00:42:00,
2013-03-15 19:52:00,31.0,28.0,29.89,ESE,105,4.0,7.0,88,0.00,,,0.02,,2013-03-16 00:52:00,
2013-03-15 20:02:00,31.0,28.0,29.89,North,5,0.0,7.0,88,0.00,,,0.02,,2013-03-16 01:02:00,
2013-03-15 20:12:00,31.0,28.0,29.89,North,5,0.0,7.0,88,0.00,,,0.02,,2013-03-16 01:12:00,
2013-03-15 20:21:00,31.0,28.0,29.89,East,89,5.0,9.0,87,0.00,,,0.02,,2013-03-16 01:21:00,
2013-03-15 20:32:00,31.0,27.0,29.89,East,88,5.0,10.0,86,0.00,,,0.02,,2013-03-16 01:32:00,
2013-03-15 20:42:00,31.0,27.0,29.89,East,88,5.0,10.0,86,0.00,,,0.02,,2013-03-16 01:42:00,
2013-03-15 20:52:00,31.0,27.0,29.89,East,81,1.0,10.0,86,0.00,,,0.02,,2013-03-16 01:52:00,
2013-03-15 21:02:00,30.0,26.0,29.88,East,86,7.0,8.0,86,0.00,,,0.02,,2013-03-16 02:02:00,
2013-03-15 21:12:00,30.0,26.0,29.88,East,86,7.0,8.0,86,0.00,,,0.02,,2013-03-16 02:12:00,
2013-03-15 21:23:00,30.0,26.0,29.88,ESE,104,4.0,11.0,85,0.00,,,0.02,,2013-03-16 02:23:00,
2013-03-15 21:32:00,30.0,26.0,29.88,ESE,115,5.0,10.0,85,0.00,,,0.02,,2013-03-16 02:32:00,
2013-03-15 21:42:00,30.0,26.0,29.88,ESE,115,5.0,10.0,85,0.00,,,0.02,,2013-03-16 02:42:00,
2013-03-15 21:52:00,30.0,26.0,29.88,East,92,5.0,8.0,84,0.00,,,0.02,,2013-03-16 02:52:00,
2013-03-15 22:02:00,30.0,26.0,29.89,ESE,105,5.0,9.0,84,0.00,,,0.02,,2013-03-16 03:02:00,
2013-03-15 22:12:00,30.0,26.0,29.89,ESE,105,5.0,9.0,84,0.00,,,0.02,,2013-03-16 03:12:00,
2013-03-15 22:22:00,30.0,26.0,29.89,NE,54,1.0,9.0,84,0.00,,,0.02,,2013-03-16 03:22:00,
2013-03-15 22:32:00,29.0,25.0,29.88,SE,138,2.0,9.0,85,0.00,,,0.02,,2013-03-16 03:32:00,
2013-03-15 22:43:00,29.0,25.0,29.88,SE,138,2.0,9.0,85,0.00,,,0.02,,2013-03-16 03:43:00,
2013-03-15 22:52:00,29.0,26.0,29.86,ENE,64,7.0,8.0,88,0.01,,,0.03,,2013-03-16 03:52:00,
2013-03-15 23:02:00,28.0,25.0,29.86,East,90,2.0,8.0,89,0.01,,,0.03,,2013-03-16 04:02:00,
2013-03-15 23:12:00,28.0,25.0,29.86,East,90,2.0,8.0,89,0.01,,,0.03,,2013-03-16 04:12:00,
2013-03-15 23:23:00,28.0,25.0,29.85,ENE,63,4.0,9.0,90,0.01,,,0.03,,2013-03-16 04:23:00,
2013-03-15 23:32:00,28.0,25.0,29.87,NNE,32,9.0,10.0,90,0.01,,,0.03,,2013-03-16 04:32:00,
2013-03-15 23:43:00,28.0,25.0,29.87,NNE,32,9.0,10.0,90,0.01,,,0.03,,2013-03-16 04:43:00,
2013-03-15 23:52:00,28.0,25.0,29.87,NE,55,4.0,13.0,90,0.01,,,0.03,,2013-03-16 04:52:00,